Wetterdaten: Woche 28.01.13 - 03.02.13 (KW5)
Datum Zeit Temperatur Luftfeuchte Luftdruck Niederschlag Windrichtung Sonnenschein Solar Wind
28.01.2013 00:00 0,6 C 96 % 1009,6 hPa 0,0 l/m N 0,00 h 0 W/m 0,8 km/h (0 Bft)
28.01.2013 01:00 0,8 C 96 % 1009,8 hPa 0,2 l/m N 0,00 h 0 W/m 1,2 km/h (1 Bft)
28.01.2013 02:00 0,9 C 97 % 1010,4 hPa 0,2 l/m S-SW 0,00 h 0 W/m 2,9 km/h (1 Bft)
28.01.2013 03:00 0,9 C 97 % 1011,2 hPa 0,6 l/m S-SW 0,00 h 0 W/m 2,4 km/h (1 Bft)
28.01.2013 04:00 0,7 C 97 % 1012,0 hPa 0,2 l/m N 0,00 h 0 W/m 1,3 km/h (1 Bft)
28.01.2013 05:00 0,7 C 97 % 1012,7 hPa 0,0 l/m S-SW 0,00 h 0 W/m 4,4 km/h (1 Bft)
28.01.2013 06:00 0,6 C 97 % 1013,3 hPa 0,0 l/m S-SW 0,00 h 0 W/m 4,1 km/h (1 Bft)
28.01.2013 07:00 0,4 C 97 % 1014,1 hPa 0,0 l/m S-SW 0,00 h 0 W/m 5,8 km/h (1 Bft)
28.01.2013 08:00 0,3 C 97 % 1015,0 hPa 0,0 l/m S-SW 0,00 h 13 W/m 8,4 km/h (2 Bft)
28.01.2013 09:00 0,5 C 98 % 1015,9 hPa 0,0 l/m S 0,00 h 54 W/m 9,3 km/h (2 Bft)
28.01.2013 10:00 0,8 C 98 % 1016,9 hPa 0,0 l/m S 0,00 h 95 W/m 9,3 km/h (2 Bft)
28.01.2013 11:00 1,2 C 99 % 1017,7 hPa 0,0 l/m S-SW 0,00 h 107 W/m 8,0 km/h (2 Bft)
28.01.2013 12:00 1,5 C 99 % 1018,2 hPa 0,0 l/m S-SW 0,00 h 122 W/m 9,4 km/h (2 Bft)
28.01.2013 13:00 1,7 C 98 % 1018,5 hPa 0,0 l/m S-SW 0,00 h 123 W/m 11,6 km/h (2 Bft)
28.01.2013 14:00 2,1 C 96 % 1019,0 hPa 0,0 l/m SW 0,00 h 83 W/m 10,9 km/h (2 Bft)
28.01.2013 15:00 2,2 C 94 % 1019,4 hPa 0,0 l/m SW 0,00 h 54 W/m 11,0 km/h (2 Bft)
28.01.2013 16:00 2,3 C 93 % 1019,8 hPa 0,0 l/m W-SW 0,00 h 31 W/m 7,8 km/h (2 Bft)
28.01.2013 17:00 1,8 C 93 % 1020,0 hPa 0,0 l/m SW 0,00 h 7 W/m 9,1 km/h (2 Bft)
28.01.2013 18:00 1,2 C 93 % 1020,5 hPa 0,0 l/m W-SW 0,00 h 0 W/m 5,6 km/h (1 Bft)
28.01.2013 19:00 0,9 C 94 % 1020,9 hPa 0,0 l/m SW 0,00 h 0 W/m 11,4 km/h (2 Bft)
28.01.2013 20:00 1,2 C 96 % 1020,8 hPa 0,0 l/m SW 0,00 h 0 W/m 16,0 km/h (3 Bft)
28.01.2013 21:00 1,2 C 97 % 1020,7 hPa 0,0 l/m SW 0,00 h 0 W/m 13,4 km/h (3 Bft)
28.01.2013 22:00 1,0 C 97 % 1020,0 hPa 0,0 l/m SW 0,00 h 0 W/m 11,8 km/h (2 Bft)
28.01.2013 23:00 1,0 C 97 % 1020,0 hPa 0,0 l/m SW 0,00 h 0 W/m 12,8 km/h (3 Bft)
29.01.2013 00:00 1,1 C 97 % 1020,6 hPa 0,0 l/m SW 0,00 h 0 W/m 16,8 km/h (3 Bft)
29.01.2013 01:00 1,1 C 95 % 1020,5 hPa 0,0 l/m SW 0,00 h 0 W/m 18,8 km/h (3 Bft)
29.01.2013 02:00 0,8 C 96 % 1020,5 hPa 0,0 l/m SW 0,00 h 0 W/m 16,9 km/h (3 Bft)
29.01.2013 03:00 1,8 C 93 % 1020,1 hPa 0,0 l/m SW 0,00 h 0 W/m 22,1 km/h (4 Bft)
29.01.2013 04:00 2,1 C 90 % 1020,3 hPa 0,0 l/m SW 0,00 h 0 W/m 18,9 km/h (3 Bft)
29.01.2013 05:00 2,0 C 89 % 1020,1 hPa 0,0 l/m SW 0,00 h 0 W/m 20,4 km/h (4 Bft)
29.01.2013 06:00 1,9 C 89 % 1019,6 hPa 0,0 l/m W-SW 0,00 h 0 W/m 23,3 km/h (4 Bft)
29.01.2013 07:00 2,3 C 88 % 1019,3 hPa 0,0 l/m SW 0,00 h 0 W/m 21,6 km/h (4 Bft)
29.01.2013 08:00 2,5 C 87 % 1019,0 hPa 0,0 l/m W-SW 0,00 h 18 W/m 18,1 km/h (3 Bft)
29.01.2013 09:00 2,5 C 88 % 1018,8 hPa 0,0 l/m SW 0,00 h 41 W/m 18,5 km/h (3 Bft)
29.01.2013 10:00 3,5 C 82 % 1018,7 hPa 0,0 l/m W-SW 0,00 h 64 W/m 24,7 km/h (4 Bft)
29.01.2013 11:00 3,7 C 82 % 1018,7 hPa 0,0 l/m SW 0,00 h 69 W/m 19,4 km/h (3 Bft)
29.01.2013 12:00 3,8 C 83 % 1018,4 hPa 0,0 l/m SW 0,00 h 51 W/m 20,6 km/h (4 Bft)
29.01.2013 13:00 4,5 C 82 % 1018,2 hPa 0,0 l/m SW 0,00 h 53 W/m 20,0 km/h (4 Bft)
29.01.2013 14:00 4,6 C 82 % 1018,2 hPa 0,0 l/m W-SW 0,00 h 34 W/m 22,5 km/h (4 Bft)
29.01.2013 15:00 4,6 C 86 % 1018,7 hPa 0,0 l/m SW 0,00 h 23 W/m 23,9 km/h (4 Bft)
29.01.2013 16:00 4,4 C 90 % 1019,1 hPa 0,2 l/m W-SW 0,00 h 12 W/m 31,4 km/h (5 Bft)
29.01.2013 17:00 4,5 C 91 % 1019,1 hPa 0,0 l/m W-SW 0,00 h 0 W/m 40,9 km/h (6 Bft)
29.01.2013 18:00 4,6 C 91 % 1019,2 hPa 0,0 l/m W-SW 0,00 h 0 W/m 36,2 km/h (5 Bft)
29.01.2013 19:00 4,8 C 91 % 1019,3 hPa 0,0 l/m W-SW 0,00 h 0 W/m 32,1 km/h (5 Bft)
29.01.2013 20:00 4,9 C 92 % 1019,2 hPa 0,0 l/m SW 0,00 h 0 W/m 31,4 km/h (5 Bft)
29.01.2013 21:00 5,1 C 93 % 1019,5 hPa 0,0 l/m W-SW 0,00 h 0 W/m 34,2 km/h (5 Bft)
29.01.2013 22:00 5,4 C 93 % 1019,8 hPa 0,0 l/m W-SW 0,00 h 0 W/m 30,9 km/h (5 Bft)
29.01.2013 23:00 5,9 C 93 % 1019,9 hPa 0,0 l/m W-SW 0,00 h 0 W/m 29,0 km/h (5 Bft)
30.01.2013 00:00 6,2 C 93 % 1019,3 hPa 0,0 l/m W-SW 0,00 h 0 W/m 31,4 km/h (5 Bft)
30.01.2013 01:00 6,5 C 94 % 1019,1 hPa 0,0 l/m W-SW 0,00 h 0 W/m 32,5 km/h (5 Bft)
30.01.2013 02:00 6,7 C 93 % 1019,2 hPa 0,0 l/m W-SW 0,00 h 0 W/m 29,6 km/h (5 Bft)
30.01.2013 03:00 6,4 C 93 % 1019,2 hPa 0,0 l/m W-SW 0,00 h 0 W/m 26,0 km/h (4 Bft)
30.01.2013 04:00 6,4 C 94 % 1018,8 hPa 0,0 l/m SW 0,00 h 0 W/m 21,4 km/h (4 Bft)
30.01.2013 05:00 6,5 C 94 % 1018,7 hPa 0,0 l/m SW 0,00 h 0 W/m 17,6 km/h (3 Bft)
30.01.2013 06:00 7,4 C 94 % 1018,3 hPa 0,0 l/m SW 0,00 h 0 W/m 23,6 km/h (4 Bft)
30.01.2013 07:00 8,0 C 93 % 1017,9 hPa 0,0 l/m SW 0,00 h 0 W/m 30,2 km/h (5 Bft)
30.01.2013 08:00 9,0 C 91 % 1017,8 hPa 0,0 l/m SW 0,00 h 28 W/m 34,9 km/h (5 Bft)
30.01.2013 09:00 9,7 C 89 % 1017,5 hPa 0,0 l/m SW 0,00 h 53 W/m 32,5 km/h (5 Bft)
30.01.2013 10:00 10,3 C 87 % 1017,9 hPa 0,0 l/m W-SW 0,00 h 72 W/m 33,5 km/h (5 Bft)
30.01.2013 11:00 10,1 C 88 % 1017,4 hPa 0,0 l/m SW 0,00 h 65 W/m 25,7 km/h (4 Bft)
30.01.2013 12:00 10,4 C 85 % 1016,6 hPa 0,0 l/m SW 0,00 h 52 W/m 31,5 km/h (5 Bft)
30.01.2013 13:00 10,7 C 85 % 1015,6 hPa 0,0 l/m W-SW 0,00 h 93 W/m 32,6 km/h (5 Bft)
30.01.2013 14:00 11,5 C 82 % 1014,5 hPa 0,0 l/m W-SW 0,17 h 168 W/m 33,8 km/h (5 Bft)
30.01.2013 15:00 12,3 C 78 % 1013,9 hPa 0,0 l/m SW 0,17 h 112 W/m 31,3 km/h (5 Bft)
30.01.2013 16:00 12,1 C 77 % 1012,8 hPa 0,0 l/m W-SW 0,08 h 31 W/m 31,9 km/h (5 Bft)
30.01.2013 17:00 11,1 C 83 % 1012,6 hPa 0,4 l/m W-SW 0,00 h 7 W/m 32,6 km/h (5 Bft)
30.01.2013 18:00 9,8 C 92 % 1013,3 hPa 1,8 l/m W-SW 0,00 h 0 W/m 31,3 km/h (5 Bft)
30.01.2013 19:00 9,7 C 95 % 1013,2 hPa 0,4 l/m W-SW 0,00 h 0 W/m 33,4 km/h (5 Bft)
30.01.2013 20:00 9,6 C 93 % 1014,2 hPa 4,4 l/m W-SW 0,00 h 0 W/m 29,0 km/h (5 Bft)
30.01.2013 21:00 7,8 C 91 % 1015,3 hPa 0,4 l/m W-NW 0,00 h 0 W/m 29,7 km/h (5 Bft)
30.01.2013 22:00 7,4 C 87 % 1016,7 hPa 0,0 l/m W 0,00 h 0 W/m 26,3 km/h (4 Bft)
30.01.2013 23:00 7,1 C 86 % 1018,6 hPa 0,0 l/m W 0,00 h 0 W/m 18,2 km/h (3 Bft)
31.01.2013 00:00 6,7 C 84 % 1020,5 hPa 0,0 l/m W-SW 0,00 h 0 W/m 14,1 km/h (3 Bft)
31.01.2013 01:00 6,1 C 86 % 1021,1 hPa 0,0 l/m W-SW 0,00 h 0 W/m 18,5 km/h (3 Bft)
31.01.2013 02:00 5,7 C 89 % 1021,7 hPa 0,0 l/m W-SW 0,00 h 0 W/m 17,7 km/h (3 Bft)
31.01.2013 03:00 5,5 C 89 % 1021,4 hPa 0,0 l/m W-SW 0,00 h 0 W/m 25,1 km/h (4 Bft)
31.01.2013 04:00 5,3 C 86 % 1020,9 hPa 0,0 l/m SW 0,00 h 0 W/m 27,1 km/h (4 Bft)
31.01.2013 05:00 5,0 C 83 % 1021,3 hPa 0,0 l/m W-SW 0,00 h 0 W/m 31,7 km/h (5 Bft)
31.01.2013 06:00 4,6 C 83 % 1021,3 hPa 0,0 l/m W-SW 0,00 h 0 W/m 24,1 km/h (4 Bft)
31.01.2013 07:00 4,4 C 83 % 1021,2 hPa 0,0 l/m W-SW 0,00 h 7 W/m 27,6 km/h (4 Bft)
31.01.2013 08:00 4,4 C 85 % 1021,5 hPa 0,0 l/m W-SW 0,08 h 36 W/m 18,5 km/h (3 Bft)
31.01.2013 09:00 4,9 C 85 % 1021,4 hPa 0,0 l/m W-SW 0,67 h 128 W/m 21,4 km/h (4 Bft)
31.01.2013 10:00 5,8 C 83 % 1021,2 hPa 0,0 l/m W-SW 0,17 h 162 W/m 26,5 km/h (4 Bft)
31.01.2013 11:00 6,2 C 83 % 1020,7 hPa 0,0 l/m W-SW 0,00 h 109 W/m 28,6 km/h (4 Bft)
31.01.2013 12:00 7,1 C 78 % 1019,4 hPa 0,0 l/m SW 0,75 h 323 W/m 33,0 km/h (5 Bft)
31.01.2013 13:00 7,8 C 72 % 1018,1 hPa 0,0 l/m W-SW 0,50 h 283 W/m 36,5 km/h (5 Bft)
31.01.2013 14:00 8,6 C 65 % 1017,6 hPa 0,0 l/m W 1,00 h 290 W/m 33,8 km/h (5 Bft)
31.01.2013 15:00 8,3 C 65 % 1017,2 hPa 0,0 l/m SW 0,75 h 194 W/m 36,7 km/h (5 Bft)
31.01.2013 16:00 7,9 C 66 % 1016,5 hPa 0,0 l/m W-SW 0,00 h 37 W/m 27,5 km/h (4 Bft)
31.01.2013 17:00 7,8 C 63 % 1016,5 hPa 0,0 l/m W 0,00 h 8 W/m 26,4 km/h (4 Bft)
31.01.2013 18:00 8,0 C 64 % 1016,5 hPa 0,0 l/m W 0,00 h 0 W/m 33,4 km/h (5 Bft)
31.01.2013 19:00 8,2 C 65 % 1016,7 hPa 0,0 l/m W 0,00 h 0 W/m 38,6 km/h (5 Bft)
31.01.2013 20:00 7,9 C 70 % 1016,8 hPa 0,0 l/m W 0,00 h 0 W/m 32,6 km/h (5 Bft)
31.01.2013 21:00 6,9 C 80 % 1016,6 hPa 0,2 l/m W-SW 0,00 h 0 W/m 25,4 km/h (4 Bft)
31.01.2013 22:00 7,1 C 85 % 1016,9 hPa 1,0 l/m W 0,00 h 0 W/m 26,3 km/h (4 Bft)
31.01.2013 23:00 6,0 C 89 % 1017,0 hPa 0,8 l/m W-NW 0,00 h 0 W/m 29,4 km/h (5 Bft)
01.02.2013 00:00 5,8 C 90 % 1017,0 hPa 0,0 l/m W-SW 0,00 h 0 W/m 16,1 km/h (3 Bft)
01.02.2013 01:00 5,9 C 90 % 1016,6 hPa 0,0 l/m W 0,00 h 0 W/m 19,2 km/h (3 Bft)
01.02.2013 02:00 5,9 C 88 % 1016,2 hPa 0,0 l/m W-SW 0,00 h 0 W/m 18,6 km/h (3 Bft)
01.02.2013 03:00 5,9 C 88 % 1015,6 hPa 0,0 l/m W 0,00 h 0 W/m 21,6 km/h (4 Bft)
01.02.2013 04:00 5,9 C 86 % 1014,8 hPa 0,0 l/m W-SW 0,00 h 0 W/m 13,4 km/h (3 Bft)
01.02.2013 05:00 5,8 C 90 % 1014,2 hPa 0,0 l/m W-SW 0,00 h 0 W/m 17,2 km/h (3 Bft)
01.02.2013 06:00 5,9 C 91 % 1013,5 hPa 0,0 l/m W-SW 0,00 h 0 W/m 20,0 km/h (4 Bft)
01.02.2013 07:00 6,0 C 89 % 1012,6 hPa 0,2 l/m W-SW 0,00 h 0 W/m 22,1 km/h (4 Bft)
01.02.2013 08:00 5,8 C 90 % 1011,8 hPa 0,6 l/m W-SW 0,00 h 13 W/m 14,9 km/h (3 Bft)
01.02.2013 09:00 5,4 C 94 % 1010,6 hPa 0,0 l/m SW 0,00 h 25 W/m 12,2 km/h (2 Bft)
01.02.2013 10:00 5,2 C 94 % 1009,5 hPa 0,2 l/m SW 0,00 h 44 W/m 17,4 km/h (3 Bft)
01.02.2013 11:00 5,0 C 95 % 1008,1 hPa 0,2 l/m SW 0,00 h 55 W/m 18,9 km/h (3 Bft)
01.02.2013 12:00 4,7 C 95 % 1006,9 hPa 1,4 l/m SW 0,00 h 42 W/m 18,8 km/h (3 Bft)
01.02.2013 13:00 4,8 C 96 % 1004,8 hPa 0,4 l/m SW 0,00 h 47 W/m 18,8 km/h (3 Bft)
01.02.2013 14:00 5,0 C 97 % 1002,9 hPa 0,6 l/m SW 0,00 h 31 W/m 17,8 km/h (3 Bft)
01.02.2013 15:00 5,1 C 97 % 1000,8 hPa 0,4 l/m SW 0,00 h 19 W/m 18,8 km/h (3 Bft)
01.02.2013 16:00 5,3 C 97 % 999,2 hPa 0,8 l/m SW 0,00 h 8 W/m 16,1 km/h (3 Bft)
01.02.2013 17:00 5,7 C 98 % 997,6 hPa 0,4 l/m SW 0,00 h 0 W/m 21,6 km/h (4 Bft)
01.02.2013 18:00 7,0 C 97 % 996,3 hPa 1,2 l/m W-SW 0,00 h 0 W/m 30,6 km/h (5 Bft)
01.02.2013 19:00 7,4 C 96 % 994,8 hPa 0,8 l/m W-SW 0,00 h 0 W/m 30,4 km/h (5 Bft)
01.02.2013 20:00 7,7 C 95 % 993,7 hPa 0,6 l/m SW 0,00 h 0 W/m 30,2 km/h (5 Bft)
01.02.2013 21:00 7,6 C 95 % 992,6 hPa 0,4 l/m W-SW 0,00 h 0 W/m 30,9 km/h (5 Bft)
01.02.2013 22:00 7,6 C 94 % 991,5 hPa 0,6 l/m W-SW 0,00 h 0 W/m 32,9 km/h (5 Bft)
01.02.2013 23:00 7,6 C 94 % 991,2 hPa 2,0 l/m W 0,00 h 0 W/m 27,4 km/h (4 Bft)
02.02.2013 00:00 6,4 C 93 % 991,2 hPa 2,2 l/m W-NW 0,00 h 0 W/m 16,8 km/h (3 Bft)
02.02.2013 01:00 5,5 C 95 % 990,4 hPa 2,6 l/m W 0,00 h 0 W/m 6,7 km/h (2 Bft)
02.02.2013 02:00 5,3 C 95 % 989,6 hPa 3,2 l/m W 0,00 h 0 W/m 3,5 km/h (1 Bft)
02.02.2013 03:00 5,0 C 96 % 989,6 hPa 2,8 l/m NW 0,00 h 0 W/m 13,4 km/h (3 Bft)
02.02.2013 04:00 4,1 C 96 % 990,5 hPa 1,0 l/m N-NW 0,00 h 0 W/m 18,2 km/h (3 Bft)
02.02.2013 05:00 2,8 C 93 % 992,4 hPa 0,0 l/m N-NW 0,00 h 0 W/m 20,8 km/h (4 Bft)
02.02.2013 06:00 2,0 C 93 % 994,1 hPa 0,2 l/m N-NW 0,00 h 0 W/m 15,0 km/h (3 Bft)
02.02.2013 07:00 1,7 C 93 % 996,3 hPa 0,0 l/m NW 0,00 h 0 W/m 9,8 km/h (2 Bft)
02.02.2013 08:00 1,4 C 93 % 998,1 hPa 0,2 l/m N-NW 0,00 h 8 W/m 10,9 km/h (2 Bft)
02.02.2013 09:00 1,3 C 94 % 999,0 hPa 0,2 l/m N-NW 0,00 h 35 W/m 10,9 km/h (2 Bft)
02.02.2013 10:00 1,4 C 95 % 999,9 hPa 0,0 l/m N-NO 0,00 h 67 W/m 14,4 km/h (3 Bft)
02.02.2013 11:00 1,8 C 92 % 1000,8 hPa 0,0 l/m N 0,00 h 73 W/m 11,0 km/h (2 Bft)
02.02.2013 12:00 2,1 C 89 % 1001,0 hPa 0,0 l/m N-NW 0,00 h 60 W/m 9,4 km/h (2 Bft)
02.02.2013 13:00 2,1 C 87 % 1001,2 hPa 0,0 l/m N 0,00 h 41 W/m 12,0 km/h (2 Bft)
02.02.2013 14:00 2,2 C 87 % 1001,6 hPa 0,0 l/m N 0,00 h 50 W/m 8,4 km/h (2 Bft)
02.02.2013 15:00 2,0 C 87 % 1002,3 hPa 0,0 l/m N 0,00 h 47 W/m 6,6 km/h (2 Bft)
02.02.2013 16:00 1,6 C 91 % 1002,9 hPa 0,0 l/m N 0,00 h 36 W/m 2,3 km/h (1 Bft)
02.02.2013 17:00 1,7 C 92 % 1003,7 hPa 0,2 l/m N 0,00 h 7 W/m 0,8 km/h (0 Bft)
02.02.2013 18:00 1,5 C 93 % 1004,6 hPa 0,0 l/m N 0,00 h 0 W/m 0,8 km/h (0 Bft)
02.02.2013 19:00 1,2 C 93 % 1005,5 hPa 0,0 l/m N 0,00 h 0 W/m 2,0 km/h (1 Bft)
02.02.2013 20:00 1,1 C 94 % 1006,6 hPa 0,0 l/m N 0,00 h 0 W/m 6,2 km/h (2 Bft)
02.02.2013 21:00 0,2 C 93 % 1008,3 hPa 0,2 l/m N-NO 0,00 h 0 W/m 26,4 km/h (4 Bft)
02.02.2013 22:00 -0,8 C 92 % 1009,5 hPa 0,0 l/m N-NO 0,00 h 0 W/m 19,0 km/h (3 Bft)
02.02.2013 23:00 -0,9 C 87 % 1010,4 hPa 0,0 l/m N-NO 0,00 h 0 W/m 19,0 km/h (3 Bft)
03.02.2013 00:00 -1,3 C 86 % 1011,4 hPa 0,0 l/m N-NO 0,00 h 0 W/m 11,1 km/h (2 Bft)
03.02.2013 01:00 -1,8 C 87 % 1012,4 hPa 0,0 l/m N 0,00 h 0 W/m 7,5 km/h (2 Bft)
03.02.2013 02:00 -2,1 C 89 % 1013,9 hPa 0,0 l/m N 0,00 h 0 W/m 3,5 km/h (1 Bft)
03.02.2013 03:00 -1,8 C 90 % 1015,0 hPa 0,0 l/m N 0,00 h 0 W/m 1,1 km/h (0 Bft)
03.02.2013 04:00 -1,4 C 90 % 1015,7 hPa 0,0 l/m W-NW 0,00 h 0 W/m 2,8 km/h (1 Bft)
03.02.2013 05:00 -1,2 C 90 % 1016,7 hPa 0,0 l/m W-NW 0,00 h 0 W/m 5,9 km/h (2 Bft)
03.02.2013 06:00 -1,1 C 91 % 1017,1 hPa 0,2 l/m W-NW 0,00 h 0 W/m 6,5 km/h (2 Bft)
03.02.2013 07:00 -1,3 C 93 % 1017,4 hPa 0,0 l/m W 0,00 h 0 W/m 4,9 km/h (1 Bft)
03.02.2013 08:00 -1,2 C 93 % 1018,3 hPa 0,0 l/m W 0,00 h 14 W/m 7,8 km/h (2 Bft)
03.02.2013 09:00 -0,8 C 93 % 1019,1 hPa 0,0 l/m W-NW 0,00 h 42 W/m 11,4 km/h (2 Bft)
03.02.2013 10:00 -0,0 C 92 % 1019,8 hPa 0,0 l/m W-NW 0,08 h 136 W/m 9,9 km/h (2 Bft)
03.02.2013 11:00 0,9 C 84 % 1020,3 hPa 0,0 l/m W-NW 0,25 h 215 W/m 12,0 km/h (2 Bft)
03.02.2013 12:00 1,3 C 82 % 1020,3 hPa 0,0 l/m W-NW 0,00 h 102 W/m 10,1 km/h (2 Bft)
03.02.2013 13:00 1,1 C 83 % 1019,8 hPa 0,0 l/m W-NW 0,17 h 177 W/m 13,2 km/h (3 Bft)
03.02.2013 14:00 1,8 C 79 % 1019,8 hPa 0,0 l/m W-NW 0,58 h 334 W/m 17,4 km/h (3 Bft)
03.02.2013 15:00 1,4 C 77 % 1020,1 hPa 0,0 l/m W-NW 0,00 h 65 W/m 13,6 km/h (3 Bft)
03.02.2013 16:00 1,3 C 76 % 1020,3 hPa 0,0 l/m W-NW 0,00 h 20 W/m 12,6 km/h (3 Bft)
03.02.2013 17:00 1,0 C 78 % 1020,1 hPa 0,0 l/m W-NW 0,00 h 6 W/m 9,4 km/h (2 Bft)
03.02.2013 18:00 0,7 C 84 % 1020,3 hPa 0,0 l/m W-SW 0,00 h 0 W/m 16,6 km/h (3 Bft)
03.02.2013 19:00 0,5 C 85 % 1020,0 hPa 0,0 l/m SW 0,00 h 0 W/m 26,8 km/h (4 Bft)
03.02.2013 20:00 0,5 C 84 % 1019,7 hPa 0,0 l/m W-SW 0,00 h 0 W/m 31,3 km/h (5 Bft)
03.02.2013 21:00 0,4 C 81 % 1019,3 hPa 0,0 l/m SW 0,00 h 0 W/m 34,2 km/h (5 Bft)
03.02.2013 22:00 0,1 C 83 % 1018,4 hPa 0,0 l/m W-SW 0,00 h 0 W/m 40,1 km/h (6 Bft)
03.02.2013 23:00 0,2 C 79 % 1017,7 hPa 0,0 l/m W-SW 0,00 h 0 W/m 42,9 km/h (6 Bft)
Min-Datum _ 03.02.13 31.01.13 02.02.13 - - - - 28.01.13
_ Min-Zeit 02:10 17:10 02:45 - - - - 00:00
Minimum _ -2,2 C 63 % 989,4 hPa - - - - 0,0 km/h (0 Bft)
Max-Datum _ 30.01.13 01.02.13 31.01.13 30.01.13 - 30.01.13 03.02.13 03.02.13
_ Max-Zeit 15:40 14:30 02:40 20:45 - 14:35 11:50 23:05
Maximum _ 12,4 C 100 % 1021,9 hPa 4,4 l/m - 0,08 h 522 W/m 56,3 km/h
SW (7 Bft)
Durchschnitt _ 4,0 C 89 % 1013,5 hPa #34,6 l/m W-SW #5:25 h 74 W/m 19,4 km/h (3 Bft)